Погода в Паракуру

Бразилия     3°25′14″S   39°02′05″W
темп.,
°C
ветер,
м/с
пор.,
м/с
влажн.,
%
обл.,
%
осадки,
мм/ч
давл.,
гПа
погр.,
м
27 января, ср
ср2700:00+25в3883100 0.0 1010608
03:00+24юв258881 0.0 1009287
06:00+24ююв2587100 0.0 1010275
09:00+29юв466199 0.1 10111229
12:00+33в574741 0.0 10101611
15:00+30в685624 0.0 1007907
18:00+26в497313 0.0 1009479
21:00+26в49797 0.0 1010514
28 января, чт
чт2800:00+26в38830 0.0 1010628
03:00+24юв269135 1.8 1009305
06:00+24юв2593100 0.5 1010224
09:00+28вюв4773100 2.6 10121039
12:00+32в6750100 0.1 10101549
15:00+30в6856100 0.1 1008977
18:00+27в4975100 0.0 1009573
21:00+26в4877100 0.0 1011637
29 января, пт
пт2900:00+26в388097 0.9 1011570
03:00+25в388398 1.4 1009395
06:00+23юв2494100 1.3 1010168
09:00+28вюв4676100 3.1 1012930
12:00+29в5772100 3.4 1011973
15:00+28в587584 6.4 1009842
18:00+26в388185 0.3 1010555
21:00+26всв488291 0.3 1011684
30 января, сб
сб3000:00+26всв3881100 0.0 1011631
03:00+25в388596 0.3 1010460
06:00+24в3891100 1.4 1011340
09:00+27в588094 2.9 1012929
12:00+29в587013 2.3 10121095
15:00+30в686023 2.6 10101223
18:00+26в48810 0.1 1010700
21:00+25в49840 0.1 1011688
31 января, вс
вс3100:00+25в388253 0.1 1011642
03:00+24вюв389076 0.6 1010483
06:00+24вюв279198 0.5 1011343
09:00+27вюв477799 2.2 1012965
12:00+30в5760100 1.4 10111273
15:00+30в5758100 1.6 10091197
18:00+26в377799 0.0 1009490
21:00+27в3777100 0.0 1011764